Regional Weather Roundup
Issued by NWS Jackson, KY

Home | Current Version | Previous Version | Graphics & Text | Print | Product List | Glossary On
Versions: 1 2 3 4 5 6 7 8 9 10 11 12 13 14 15 16 17 18 19 20 21 22 23 24 25 26 27 28 29 30 31 32 33 34 35 36 37 38 39 40 41 42 43 44 45 46 47 48 49 50
000
ASUS43 KJKL 240010
RWRJKL

EAST KENTUCKY HOURLY WEATHER ROUNDUP
NATIONAL WEATHER SERVICE JACKSON KY
800 PM EDT SAT MAY 23 2015

NOTE: "FAIR" INDICATES FEW OR NO CLOUDS BELOW 12,000 FEET WITH
NO SIGNIFICANT WEATHER AND/OR OBSTRUCTIONS TO VISIBILITY.

* THESE REPORTS ARE NOT UNDER NWS QUALITY CONTROL AND MAY NOT
  REPORT WEATHER SUCH AS PRECIPITATION AND FOG.

KYZ079-080-083-085-087-088-110-112-115-119-120-240100
...EASTERN KENTUCKY...

CITY           SKY/WX    TMP DP  RH WIND       PRES   REMARKS
JACKSON        MOCLDY    71  49  45 CALM      30.31S
6HR MIN TEMP:  71; 6HR MAX TEMP:  79;

LONDON         PTCLDY    76  47  35 E5        30.29F
6HR MIN TEMP:  76; 6HR MAX TEMP:  80;

SOMERSET*      CLEAR     73  46  38 SE3       30.28F
MONTICELLO*    CLEAR     76  55  47 S8        30.30F
6HR MIN TEMP:  76; 6HR MAX TEMP:  81;

MIDDLESBORO*   MOCLDY    72  55  55 CALM      30.30S
6HR MIN TEMP:  72; 6HR MAX TEMP:  79;

HARLAN APT*    CLOUDY    72  46  40 CALM      30.31S
HAZARD APT*    CLEAR     75  48  38 CALM      30.30F
BLACK MTN*       N/A     61  45  55 CALM        N/A
PIKEVILLE APT* CLEAR     70  52  52 NE6       30.32F
BIG SANDY*     PTCLDY    71  51  49 NE3       30.31F
6HR MIN TEMP:  71; 6HR MAX TEMP:  77;

MOREHEAD APT*  CLEAR     73  48  40 CALM      30.32F
$$

KYZ035-036-041-042-044-050-067-078-099-240100
...CENTRAL KENTUCKY...

CITY           SKY/WX    TMP DP  RH WIND       PRES   REMARKS
MT STERLING*   PTCLDY    75  48  38 SE3       30.31S
FLEMING/MASON* CLEAR     72  48  43 SE5       30.31F
DANVILLE*      CLEAR     73  52  46 CALM      30.28F
RICHMOND*      CLEAR     75  48  38 CALM      30.28S
LEXINGTON      CLEAR     75  47  36 SE6       30.28F
6HR MIN TEMP:  75; 6HR MAX TEMP:  79;

FRANKFORT      CLEAR     75  46  35 SE7       30.26F
6HR MIN TEMP:  75; 6HR MAX TEMP:  79;

$$

KYZ091>093-OHZ055-061-077-WVZ005-015-034-035-042-240100
...SOUTHERN OHIO/WEST VIRGINIA...

CITY           SKY/WX    TMP DP  RH WIND       PRES   REMARKS
COVINGTON      PTCLDY    73  49  42 SE9       30.27F
COLUMBUS       PTCLDY    74  40  29 SE8       30.29F
DAYTON         PTCLDY    75  44  33 S5        30.28F
WILMINGTON     PTCLDY    74  38  27 S6        30.28F
HUNTINGTON     CLEAR     73  45  36 CALM      30.30F
CHARLESTON     PTCLDY    74  45  35 CALM      30.32S
PINEVILLE*     CLEAR     64  56  75 MISG      30.39S
BECKLEY        CLEAR     69  44  40 N6        30.37S
BLUEFIELD      MOCLDY    70  44  39 CALM      30.38F
$$

VAZ002-007-008-TNZ017-027-036-066-071-240100
...SOUTHWEST VIRGINIA/EAST TENNESSEE...

CITY           SKY/WX    TMP DP  RH WIND       PRES   REMARKS
WISE*          CLOUDY    70  43  37 S3        30.38S
JONESVILLE*    MOCLDY    75  48  38 CALM      30.33S
ABINGDON*      MOCLDY    72  50  45 CALM      30.34S
BRISTOL        PTCLDY    78  45  30 CALM      30.31F
KNOXVILLE      PTCLDY    77  53  43 NE5       30.28S
OAK RIDGE      PTCLDY    79  53  40 CALM      30.29F
CROSSVILLE     PTCLDY    73  53  49 SE3       30.31F
NASHVILLE      PTCLDY    79  52  38 S9        30.23F
$$

...KEY TO REMARKS...
VSB - VISIBILITY IN MILES
WCI - WIND CHILL INDEX
HX  - HEAT INDEX

$$


USA.gov is the U.S. government's official web portal to all federal, state and local government web resources and services.